Home   Weather   Boa Vista   Past weeks

Flag for Brazil Past Weather in Boa Vista, Roraima, Brazil — Yesterday and Last 2 Weeks

Now
81 °F

Scattered clouds.


Feels Like: 87 °F
Forecast: 76 / 90 °F
Wind: 5 mph from East

Location: Georgetown/Cheddi Jagan International Airport

Current Time: Jan 24, 2017 at 9:38:42 am

Latest Report: Jan 24, 2017 at 9:00 am


Visibility: N/A

Pressure: 29.98 "Hg

Humidity: 89%

Dew Point: 77 °F

Location of Boa VistaLocation

Past Weather in Boa Vista — Graph

°F

Boa Vista Temperature Yesterday

Maximum temperature yesterday: 86 °F (at 3:00 pm)
Minimum temperature yesterday: 72 °F (at 2:00 am)
Average temperature yesterday: 77 °F

High & Low Weather Summary for the Past Weeks

 TemperatureHumidityPressure
High88 °F (Jan 10, 1:00 pm)100% (Jan 10, 6:00 am)29.98 "Hg (Jan 10, 6:00 am)
Low66 °F (Jan 11, 6:00 am)52% (Jan 10, 1:00 pm)29.80 "Hg (Jan 10, 2:00 pm)
Average77 °F87%29.88 "Hg
* Reported Jan 9 8:00 am — Jan 24 8:00 am, Boa Vista, Weather by CustomWeather, © 2017

Note: Actual official high and low records may vary slightly from our data, if they occured in-between our weather recording intervals... More about our weather records

Advertising

Boa Vista Weather History for the Previous 24 Hours

Scroll right to see more
 ConditionsComfort  
Time TempWeatherWind HumidityBarometerVisibility
8:00 am
Tue, Jan 24
75 °FBroken clouds.2 mph100%29.98 "HgN/A
7:00 am75 °FScattered clouds.5 mph94%29.92 "HgN/A
6:13 am75 °FFog.2 mph94%29.92 "Hg2 mi
6:00 am75 °FPartly cloudy.2 mph94%29.92 "HgN/A
5:00 am75 °FPassing clouds.2 mph94%29.89 "HgN/A
4:00 am75 °FPassing clouds.2 mph94%29.89 "Hg6 mi
3:00 am75 °FFog.2 mph94%29.89 "Hg2 mi
2:27 am75 °FFog.2 mph94%29.89 "Hg2 mi
2:00 am75 °FPassing clouds.2 mph94%29.89 "Hg6 mi
1:00 am75 °FPassing clouds.2 mph94%29.92 "HgN/A
12:00 am73 °FPassing clouds.2 mph100%29.92 "Hg6 mi
11:00 pm
Mon, Jan 23
75 °FPassing clouds.5 mph100%29.95 "HgN/A
10:00 pm75 °FPassing clouds.5 mph100%29.95 "HgN/A
9:00 pm75 °FPassing clouds.5 mph100%29.92 "HgN/A
8:00 pm77 °FPartly cloudy.2 mph94%29.92 "HgN/A
7:00 pm77 °FPartly cloudy.5 mph94%29.89 "HgN/A
6:00 pm77 °FPartly cloudy.2 mph100%29.86 "HgN/A
5:00 pm77 °FPartly sunny.5 mph94%29.86 "HgN/A
4:00 pm77 °FSprinkles. Partly sunny.7 mph94%29.83 "Hg6 mi
3:00 pm86 °FPartly sunny.7 mph75%29.83 "HgN/A
2:00 pm79 °FSprinkles. Partly sunny.7 mph84%29.86 "HgN/A
1:00 pm84 °FPartly sunny.12 mph74%29.89 "HgN/A
12:00 pm82 °FBroken clouds.5 mph84%29.92 "HgN/A
11:00 am84 °FPartly sunny.5 mph74%29.95 "HgN/A
10:00 am79 °FBroken clouds.2 mph89%29.95 "HgN/A
9:00 am77 °FBroken clouds.5 mph89%29.95 "HgN/A
Weather by CustomWeather, © 2017

See weather overviewHow to use our weather pages